Weather History for KSBA - September, 2013

Change the Weather History Date:

Monday, September 16, 2013

  Actual Average Record
Temperature  
Mean Temperature 67 °F 65 °F  
Max Temperature 78 °F 74 °F 99 °F (2014)
Min Temperature 55 °F 56 °F 46 °F (2006)
Degree Days  
Heating Degree Days 0 1  
Month to date heating degree days 0 16  
Since 1 July heating degree days 30 67  
Cooling Degree Days 2 1  
Month to date cooling degree days 66 31  
Year to date cooling degree days 264 158  
Growing Degree Days 18 (Base 50)    
Moisture  
Dew Point 57 °F    
Average Humidity 68    
Maximum Humidity 87    
Minimum Humidity 48    
Precipitation  
Precipitation 0.00 in 0.01 in 0.08 in (1961)
Month to date precipitation 0.00 0.07  
Year to date precipitation 3.42 12.27  
Since 1 July precipitation 0.07 0.22  
Sea Level Pressure  
Sea Level Pressure 29.78 in    
Wind  
Wind Speed 4 mph (South)    
Max Wind Speed 12 mph    
Max Gust Speed -    
Visibility 10 miles    
Events      
T = Trace of Precipitation, MM = Missing Value Source: NWS Daily Summary

Daily Weather History Graph

Daily Weather History Graph

Search for Another Location

Airport or City:

Trip Planner

Search our weather history database for the weather conditions in past years. The results will help you decide how hot, cold, wet, or windy it might be!

Date:

Astronomy

Sep. 16, 2013 Rise Set
Actual Time 6:43 AM PDT 7:04 PM PDT
Civil Twilight 6:18 AM PDT 7:29 PM PDT
Nautical Twilight 5:48 AM PDT 7:58 PM PDT
Astronomical Twilight 5:18 AM PDT 8:28 PM PDT
Moon 5:11 PM PDT (9/16) 3:41 AM PDT (9/16)
Length of Visible Light 13h 11m
Length of Day
12h 20m
Waxing Gibbous, 91% of the Moon is Illuminated
Sep 16
Waxing Gibbous
Sep 19
Full
Sep 26
Last Quarter
Oct 4
New
Oct 11
First Quarter

Hourly Weather History & Observations

Time (PDT) Temp. Dew Point Humidity Pressure Visibility Wind Dir Wind Speed Gust Speed Precip Events Conditions
12:53 AM 64.0 °F 57.0 °F 78% 29.75 in 10.0 mi Calm Calm - N/A   Clear
1:53 AM 63.0 °F 55.9 °F 78% 29.75 in 10.0 mi NE 4.6 mph - N/A   Clear
2:53 AM 62.1 °F 55.9 °F 80% 29.76 in 10.0 mi South 3.5 mph - N/A   Clear
3:53 AM 60.1 °F 55.9 °F 86% 29.77 in 9.0 mi West 4.6 mph - N/A   Clear
4:53 AM 60.1 °F 55.9 °F 86% 29.78 in 9.0 mi Calm Calm - N/A   Clear
5:53 AM 57.9 °F 54.0 °F 87% 29.79 in 10.0 mi Calm Calm - N/A   Clear
6:53 AM 57.9 °F 53.1 °F 84% 29.81 in 10.0 mi Calm Calm - N/A   Clear
7:53 AM 63.0 °F 57.0 °F 81% 29.82 in 10.0 mi Calm Calm - N/A   Clear
8:53 AM 68.0 °F 59.0 °F 73% 29.83 in 10.0 mi Calm Calm - N/A   Clear
9:53 AM 69.1 °F 59.0 °F 70% 29.84 in 10.0 mi South 5.8 mph - N/A   Clear
10:53 AM 70.0 °F 57.9 °F 65% 29.85 in 10.0 mi SSE 5.8 mph - N/A   Clear
11:53 AM 73.9 °F 57.9 °F 57% 29.84 in 10.0 mi Variable 4.6 mph - N/A   Clear
12:53 PM 78.1 °F 57.9 °F 50% 29.82 in 10.0 mi West 3.5 mph - N/A   Clear
1:53 PM 75.0 °F 57.9 °F 55% 29.80 in 10.0 mi WSW 11.5 mph - N/A   Clear
2:53 PM 75.9 °F 57.0 °F 52% 29.78 in 10.0 mi WSW 8.1 mph - N/A   Clear
3:53 PM 75.9 °F 57.9 °F 54% 29.76 in 10.0 mi WSW 6.9 mph - N/A   Clear
4:53 PM 75.0 °F 59.0 °F 57% 29.75 in 10.0 mi SSE 4.6 mph - N/A   Clear
5:53 PM 68.0 °F 60.1 °F 76% 29.75 in 10.0 mi SE 4.6 mph - N/A   Clear
6:53 PM 64.9 °F 59.0 °F 81% 29.74 in 10.0 mi ESE 4.6 mph - N/A   Clear
7:53 PM 64.9 °F 60.1 °F 84% 29.74 in 10.0 mi ESE 5.8 mph - N/A   Clear
8:53 PM 64.0 °F 59.0 °F 84% 29.75 in 10.0 mi ESE 5.8 mph - N/A   Clear
9:53 PM 62.1 °F 57.9 °F 86% 29.77 in 10.0 mi Calm Calm - N/A   Clear
10:53 PM 60.1 °F 55.9 °F 86% 29.77 in 10.0 mi Calm Calm - N/A   Clear
11:53 PM 59.0 °F 55.9 °F 90% 29.77 in 10.0 mi Calm Calm - N/A   Clear